K0PFX-8 Weather Reports


time (UTC)temp
C
wind
direction
speed
KPH
gust
KPH
rain 1hr
cm
rain 24hr
cm
rain mn
cm
humidity
%
barometer
mb
20260906035736 30 63 3.2 0.0 0.00 0.00 0.00 55 1014.1
20260906034235 30 62 4.8 0.0 0.00 0.00 0.00 54 1013.9
20260906032735 30 14 0.0 0.0 0.00 0.00 0.00 53 1013.9
20260906031233 30 41 0.0 0.0 0.00 0.00 0.00 51 1013.6
20260906025735 31 336 0.0 0.0 0.00 0.00 0.00 50 1013.5
20260906024233 31 346 0.0 0.0 0.00 0.00 0.00 49 1013.5
20260906022734 31 359 0.0 0.0 0.00 0.00 0.00 49 1013.0
20260906021233 31 359 0.0 0.0 0.00 0.00 0.00 51 1012.8
20260906015734 31 359 0.0 0.0 0.00 0.00 0.00 51 1012.7
20260906014233 31 359 0.0 0.0 0.00 0.00 0.00 49 1012.5
20260906012734 31 359 0.0 0.0 0.00 0.00 0.00 48 1012.3
20260906011232 32 359 0.0 0.0 0.00 0.00 0.00 47 1012.2
20260906005734 32 359 0.0 0.0 0.00 0.00 0.00 45 1012.0
20260906004233 32 359 0.0 0.0 0.00 0.00 0.00 43 1012.0
20260906002734 32 359 0.0 0.0 0.00 0.00 0.00 42 1012.0
20260906001232 33 359 0.0 0.0 0.00 0.00 0.00 43 1012.0
20260905235734 33 359 0.0 0.0 0.00 0.00 0.00 41 1011.8
20260905234232 34 359 0.0 0.0 0.00 0.00 0.00 38 1011.8
20260905232733 34 4 0.0 0.0 0.00 0.00 0.00 35 1012.0
20260905231232 35 294 0.0 0.0 0.00 0.00 0.00 32 1012.0
20260905225733 35 311 0.0 0.0 0.00 0.00 0.00 31 1012.0
20260905224232 35 330 1.6 0.0 0.00 0.00 0.00 29 1011.9
20260905222733 35 100 1.6 0.0 0.00 0.00 0.00 28 1011.9
20260905221233 36 335 0.0 0.0 0.00 0.00 0.00 30 1012.0
20260905215733 36 311 8.0 8.0 0.00 0.00 0.00 26 1011.9
20260905214231 36 308 6.4 0.0 0.00 0.00 0.00 26 1012.0
20260905212732 36 312 3.2 0.0 0.00 0.00 0.00 27 1011.9
20260905211231 36 262 6.4 3.2 0.00 0.00 0.00 28 1012.1
20260905205732 35 359 1.6 0.0 0.00 0.00 0.00 29 1012.4
20260905204230 36 354 3.2 14.5 0.00 0.00 0.00 29 1012.5
20260905202732 36 17 9.7 4.8 0.00 0.00 0.00 27 1012.4
20260905201231 37 297 6.4 0.0 0.00 0.00 0.00 25 1012.4
20260905195732 37 136 6.4 0.0 0.00 0.00 0.00 24 1012.5
20260905194231 36 10 1.6 9.7 0.00 0.00 0.00 23 1012.8
20260905192732 36 269 6.4 4.8 0.00 0.00 0.00 26 1013.0
20260905191229 36 297 4.8 0.0 0.00 0.00 0.00 26 1013.2
20260905185730 36 359 1.6 0.0 0.00 0.00 0.00 25 1013.5
20260905184231 36 335 6.4 8.0 0.00 0.00 0.00 25 1013.6
20260905182730 35 267 3.2 4.8 0.00 0.00 0.00 31 1013.8
20260905181229 35 312 0.0 0.0 0.00 0.00 0.00 32 1014.0
20260905175730 35 259 8.0 0.0 0.00 0.00 0.00 33 1014.2
20260905174228 34 276 0.0 0.0 0.00 0.00 0.00 34 1014.3
20260905172730 34 288 8.0 3.2 0.00 0.00 0.00 35 1014.5
20260905171228 33 219 1.6 0.0 0.00 0.00 0.00 37 1014.7
20260905164226 33 243 11.3 12.9 0.00 0.00 0.00 37 1015.2
20260905162728 33 305 0.0 0.0 0.00 0.00 0.00 39 1015.4
20260905161226 32 280 3.2 6.4 0.00 0.00 0.00 40 1015.5
20260905155728 31 285 9.7 0.0 0.00 0.00 0.00 46 1015.5
20260905151226 30 231 12.9 4.8 0.00 0.00 0.00 51 1015.6
20260905144226 30 288 4.8 4.8 0.00 0.00 0.00 55 1015.5
20260905142728 29 245 8.0 0.0 0.00 0.00 0.00 57 1015.5
20260905141451 28 233 9.7 12.9 0.00 0.00 0.00 60 1015.5
20260905141342 28 233 9.7 12.9 0.00 0.00 0.00 60 1015.5
20260905141226 28 233 9.7 12.9 0.00 0.00 0.00 60 1015.5
20260905140038 28 231 4.8 4.8 0.00 0.00 0.00 63 1015.6
20260905135852 28 231 4.8 4.8 0.00 0.00 0.00 63 1015.6
20260905135728 28 231 4.8 4.8 0.00 0.00 0.00 63 1015.6
20260905134227 27 263 6.4 6.4 0.00 0.00 0.00 65 1015.4
20260905132728 27 242 9.7 8.0 0.00 0.00 0.00 67 1015.4
20260905131227 27 225 0.0 0.0 0.00 0.00 0.00 71 1015.3
20260905124226 26 239 0.0 0.0 0.00 0.00 0.00 80 1015.0
20260905122728 25 239 0.0 0.0 0.00 0.00 0.00 80 1014.9
20260905115727 25 239 0.0 0.0 0.00 0.00 0.00 83 1014.7
20260905111225 25 239 0.0 0.0 0.00 0.00 0.00 84 1014.3
20260905104225 25 239 0.0 0.0 0.00 0.00 0.00 83 1014.2
20260905102727 25 239 0.0 0.0 0.00 0.00 0.00 81 1014.3
20260905101524 25 239 0.0 0.0 0.00 0.00 0.00 81 1014.3
20260905101226 25 239 0.0 0.0 0.00 0.00 0.00 81 1014.3
20260905100144 26 239 0.0 0.0 0.00 0.00 0.00 79 1014.4
20260905094226 26 239 0.0 0.0 0.00 0.00 0.00 79 1014.4
20260905093234 26 239 0.0 0.0 0.00 0.00 0.00 78 1014.4
20260905092727 26 239 0.0 0.0 0.00 0.00 0.00 78 1014.4
20260905091226 26 239 0.0 0.0 0.00 0.00 0.00 76 1014.4
20260905085727 26 239 0.0 0.0 0.00 0.00 0.00 76 1014.4
20260905084226 26 239 0.0 0.0 0.00 0.00 0.00 75 1014.5
20260905082727 26 239 0.0 0.0 0.00 0.00 0.00 75 1014.5
20260905081225 26 239 0.0 0.0 0.00 0.00 0.00 75 1014.6
20260905075726 26 239 0.0 0.0 0.00 0.00 0.00 74 1014.7
20260905074225 26 239 0.0 0.0 0.00 0.00 0.00 73 1014.7
20260905072726 26 239 0.0 0.0 0.00 0.00 0.00 73 1014.7
20260905071225 26 239 0.0 0.0 0.00 0.00 0.00 72 1014.7
20260905065726 26 239 0.0 0.0 0.00 0.00 0.00 72 1014.6
20260905064225 26 239 0.0 0.0 0.00 0.00 0.00 72 1014.7
20260905062726 26 239 0.0 0.0 0.00 0.00 0.00 72 1014.8
20260905061225 27 239 0.0 0.0 0.00 0.00 0.00 71 1014.8
20260905055726 27 239 0.0 0.0 0.00 0.00 0.00 71 1014.9
20260905054224 27 239 0.0 0.0 0.00 0.00 0.00 71 1014.8
20260905052725 27 239 0.0 0.0 0.00 0.00 0.00 71 1014.8
20260905051225 27 239 0.0 0.0 0.00 0.00 0.00 70 1014.7
20260905045726 27 239 0.0 0.0 0.00 0.00 0.00 70 1014.6
20260905044224 27 239 0.0 0.0 0.00 0.00 0.00 69 1014.4
20260905042725 27 239 0.0 0.0 0.00 0.00 0.00 69 1014.3
20260905041224 27 239 0.0 0.0 0.00 0.00 0.00 68 1014.2